Wind_Speed
11 13 13 13 12 13 14 13 13 12 11 11 11 13 16 15 14 12 10 8 7 6 3 4 5 4 5 7 6 6 8 9 10 10 9 6 4 3 5 5 5 6 6 7 7 8 8 8 9 9 9 10 10 11 11 10 10 11 11 11 12 12 13 13 12 12 13 13 14 15 16 18 20 21 24 26 27 29 31 31 30 29 29 30 28 28
12 14 15 15 14 14 15 14 12 10 9 9 10 12 16 17 16 12 8 8 6 5 3 3 4 4 4 5 5 6 7 8 10 10 9 8 4 2 3 4 4 5 5 6 7 7 7 7 7 8 9 10 11 11 11 10 11 11 11 11 12 12 13 14 13 14 16 17 17 18 19 20 22 23 24 26 28 29 32 34 34 33 32 32 30 28
14 16 15 14 13 12 13 13 12 12 12 11 10 9 11 13 14 10 5 5 5 4 4 2 3 4 3 3 4 5 6 8 9 10 9 8 5 3 3 2 3 4 5 6 7 7 8 8 8 9 10 11 12 11 11 11 11 11 12 12 13 13 14 15 15 16 17 18 19 21 22 22 24 25 26 27 28 29 31 33 35 35 34 34 34 32
16 16 13 12 12 13 14 14 14 14 14 13 12 11 10 10 11 8 5 5 6 6 5 3 1 2 2 3 4 4 6 8 10 11 9 8 6 5 4 4 3 3 5 6 7 8 8 9 10 11 12 12 11 11 11 11 12 12 13 13 14 14 15 16 17 17 18 18 19 21 22 23 24 26 28 29 30 30 31 32 34 35 36 35 35 35
16 13 12 12 14 15 15 15 14 15 16 15 14 14 13 12 10 9 9 9 10 10 7 4 1 1 4 6 6 5 7 9 11 12 9 8 8 6 7 7 6 4 5 7 8 8 9 9 11 12 12 11 11 11 11 12 12 13 13 13 14 15 16 17 18 19 19 20 20 21 22 23 25 26 29 31 32 33 33 32 32 34 35 35 34 34
14 12 12 13 14 15 15 15 15 16 17 17 17 16 16 15 13 12 11 11 11 10 8 5 2 3 6 7 6 6 7 11 13 13 10 8 9 9 9 10 9 6 5 7 7 7 8 9 11 12 12 11 11 11 12 12 13 13 13 14 14 15 17 18 19 20 21 21 22 22 23 24 26 27 29 31 32 33 33 34 33 33 33 34 34 34
12 12 13 14 14 15 16 16 17 17 18 19 19 18 18 17 16 14 12 12 10 9 9 7 6 7 7 7 7 7 8 12 15 15 12 10 10 11 12 13 12 9 6 7 8 8 8 9 11 12 13 13 13 13 13 14 15 15 15 15 16 17 18 20 20 20 21 21 22 23 24 25 26 27 28 30 31 32 32 33 34 34 34 35 35 35
11 13 14 13 15 16 17 18 19 19 19 19 20 20 20 19 19 17 14 12 10 10 11 9 10 9 7 8 9 9 8 12 16 17 14 11 12 13 14 14 12 10 8 8 9 9 9 10 12 13 14 15 15 15 16 17 18 18 18 18 18 18 20 21 22 21 22 22 22 23 24 26 26 27 28 29 30 31 31 32 33 34 36 37 37 37
13 14 15 14 15 17 18 19 20 21 21 20 21 21 21 22 22 18 14 12 12 13 12 11 12 11 9 12 13 11 10 12 17 18 15 13 14 15 15 15 13 11 9 9 10 11 11 12 13 13 15 16 17 18 18 19 20 21 21 21 21 21 22 24 24 24 24 24 25 25 26 27 28 29 29 30 31 31 31 31 32 33 35 37 38 38
15 15 16 17 18 19 21 21 21 22 22 21 21 20 19 19 18 16 14 13 14 16 14 13 16 16 14 14 15 13 11 13 17 18 17 16 16 16 16 17 15 12 10 10 12 13 13 14 15 15 16 17 18 19 20 21 22 23 23 23 23 23 24 26 26 26 26 26 27 27 27 28 29 30 31 32 33 33 32 32 32 32 34 36 38 39
17 17 18 19 20 21 22 22 21 21 21 20 19 18 16 14 13 14 14 15 18 18 16 17 20 21 16 12 14 13 12 14 17 18 19 18 17 17 17 18 18 15 13 13 13 15 16 17 17 17 18 18 19 21 22 23 23 24 24 25 25 25 25 26 27 26 27 27 27 27 27 28 29 30 32 33 34 35 35 34 35 35 36 38 40 41
18 19 20 20 21 22 22 21 20 20 19 18 17 16 15 14 14 16 16 18 20 20 19 20 23 23 17 12 13 14 13 15 17 18 19 19 19 19 18 20 20 18 16 16 16 16 18 19 19 19 20 21 21 22 23 24 25 25 26 26 26 25 25 26 27 27 27 27 27 27 27 28 29 30 32 33 34 35 35 36 37 38 40 42 45 46
17 19 20 20 20 21 21 20 18 16 16 15 15 16 16 16 17 18 18 19 20 20 20 21 23 23 18 13 14 14 14 15 18 19 20 19 19 19 18 20 21 19 18 18 18 18 20 21 21 22 22 23 23 24 25 25 26 27 27 28 28 27 27 28 28 29 29 29 29 29 28 29 30 31 32 33 34 34 35 35 37 38 40 43 46 49
19 19 20 20 19 19 19 16 13 12 12 13 14 15 16 17 18 18 19 20 19 19 19 19 21 21 17 15 15 14 14 15 17 20 21 20 19 19 18 19 20 21 20 20 20 20 21 21 22 23 24 24 25 26 26 27 27 28 29 29 30 29 28 29 30 30 30 30 30 30 30 30 30 31 33 34 34 35 35 36 37 39 41 43 45 47
21 20 19 17 17 17 14 11 12 11 11 12 13 14 15 16 17 17 18 19 19 18 19 18 19 18 17 16 16 15 15 16 17 20 22 22 21 20 19 19 20 22 23 23 22 21 21 22 23 25 25 26 26 27 28 28 29 30 30 31 31 30 29 29 30 30 30 30 30 31 31 31 32 33 34 34 35 35 36 37 39 40 42 43 44 45
21 20 18 16 15 15 12 11 13 13 12 13 13 13 13 14 15 16 17 19 19 20 20 19 19 18 18 18 17 17 17 18 19 21 23 25 25 23 21 20 22 24 25 26 25 23 23 23 25 26 27 27 28 28 29 30 30 31 32 32 32 31 29 30 31 31 31 31 31 31 32 32 33 34 35 36 36 36 37 38 40 42 42 43 43 42
20 19 19 17 16 16 16 15 15 12 12 14 13 11 11 11 13 15 16 19 20 21 21 20 19 19 18 17 17 18 18 18 19 20 23 25 25 23 22 23 24 26 27 27 27 26 25 25 26 27 28 29 29 30 30 31 32 32 33 33 33 31 30 31 32 32 31 31 32 32 33 33 34 35 36 37 37 37 37 39 41 43 43 42 42 40
19 19 19 18 18 18 18 18 17 14 13 14 12 11 10 11 13 15 17 19 19 20 21 20 19 18 17 16 17 18 18 18 18 18 20 23 25 25 25 26 26 27 27 28 28 28 27 27 28 29 30 30 30 31 31 32 32 33 34 34 33 31 30 32 33 32 32 32 32 33 33 34 35 37 37 37 37 37 38 40 42 43 43 42 40 38
21 20 21 20 20 20 20 19 19 17 17 15 14 13 13 13 15 16 18 19 19 19 19 19 18 17 16 16 18 19 19 19 19 19 20 22 24 26 27 28 28 27 27 28 29 29 28 29 29 30 31 30 30 31 32 32 33 33 35 35 33 31 31 33 33 33 32 32 33 34 34 35 37 37 38 38 38 38 39 41 43 43 42 40 38 37
23 22 22 22 22 22 21 20 19 18 18 16 15 15 15 15 16 17 18 19 18 17 16 17 16 14 15 17 18 19 20 20 20 21 21 23 25 26 27 28 28 28 28 28 29 29 29 30 30 31 31 31 31 32 32 32 33 34 35 35 33 31 31 34 34 33 33 33 33 34 35 36 37 38 39 38 39 39 40 42 43 43 42 39 37 36
25 24 24 23 24 24 23 21 18 17 18 16 15 15 15 15 15 15 15 16 16 16 15 16 15 13 14 17 19 19 19 19 20 21 22 23 24 25 27 28 28 28 28 29 29 30 30 30 30 31 31 31 31 32 32 32 33 34 35 35 33 32 33 34 34 34 34 33 34 35 36 37 38 39 39 39 40 40 41 43 44 43 42 39 37 35
26 25 25 25 25 24 23 22 19 17 17 16 15 16 15 15 14 14 14 14 14 16 15 16 13 9 10 15 18 19 19 18 20 21 23 23 24 24 25 27 28 28 28 29 30 30 30 30 30 31 32 32 32 33 33 32 33 35 35 35 34 33 34 35 35 34 34 34 35 36 37 38 39 39 40 40 41 41 42 44 44 43 41 39 37 36
24 25 25 26 26 25 24 23 21 18 18 18 18 17 15 15 15 16 15 14 14 14 14 16 13 7 7 13 17 18 18 18 19 21 22 23 23 24 25 26 27 27 28 30 30 30 30 30 31 32 32 32 33 33 33 33 34 35 35 35 35 34 35 36 36 35 35 35 35 36 38 39 40 40 41 41 41 42 43 44 45 43 41 39 37 36
25 25 25 25 25 25 24 23 22 21 21 21 19 16 15 17 18 18 18 17 15 13 14 16 14 8 10 14 16 17 17 17 19 20 22 23 24 24 25 26 27 28 29 30 30 30 30 30 32 33 33 33 33 34 33 34 35 35 35 36 36 35 36 37 37 36 36 36 36 37 38 39 40 41 42 42 42 43 44 45 45 43 40 38 37 37
25 25 25 25 24 25 25 25 23 21 20 19 17 17 18 19 19 19 19 19 16 13 15 18 14 11 14 16 16 17 17 17 19 20 22 24 25 25 25 26 27 28 29 30 29 29 29 30 32 34 34 34 34 34 34 35 36 36 36 37 37 36 37 38 38 37 37 37 37 38 39 40 41 42 42 43 43 44 45 45 45 43 39 38 37 37
27 26 26 26 25 24 23 21 19 17 18 19 18 19 21 21 22 21 21 20 18 17 19 20 17 15 16 18 18 18 19 19 20 22 23 25 27 27 27 26 26 27 29 30 29 29 30 31 33 34 34 34 35 36 35 35 36 37 37 37 37 37 38 38 39 38 38 38 39 40 41 42 42 43 43 44 44 45 46 46 45 43 39 37 37 38
29 29 29 28 27 25 22 21 20 20 20 21 21 22 23 24 24 24 23 22 22 24 23 21 22 20 16 18 21 22 22 23 23 24 24 26 28 28 28 27 27 28 29 30 30 30 31 32 34 35 35 36 37 36 36 36 37 38 38 38 38 38 39 39 40 40 40 40 40 41 43 43 44 44 44 44 45 47 47 46 46 43 39 38 38 38
29 31 31 29 28 28 26 26 26 26 25 24 25 25 25 26 27 25 25 25 25 28 27 24 26 24 18 20 25 25 25 26 25 25 25 26 28 29 29 29 28 29 31 31 32 32 32 33 34 35 36 36 37 36 36 37 38 38 39 39 39 39 39 40 41 41 41 41 42 43 44 45 45 45 45 45 46 47 47 47 45 43 40 38 38 39
30 30 31 31 30 29 29 30 30 30 29 29 29 29 29 29 30 29 29 29 29 31 30 28 30 27 22 24 27 27 27 28 27 26 26 27 28 29 29 30 30 31 32 33 34 33 33 34 35 36 36 37 36 36 37 38 38 39 40 41 41 40 40 41 42 43 43 42 43 44 45 46 47 46 46 46 46 47 47 46 45 43 40 38 39 39
31 31 32 32 32 32 32 32 32 31 31 31 31 32 32 32 33 32 32 33 34 35 34 35 35 29 24 27 29 28 28 29 28 28 27 27 28 29 30 31 30 32 33 34 35 35 35 36 36 37 37 37 36 36 37 39 39 40 41 42 42 42 42 43 44 45 44 43 43 45 46 47 47 47 46 46 46 47 46 45 44 42 40 38 39 40
32 32 34 34 33 33 33 33 32 32 32 33 33 34 34 35 34 34 35 36 38 39 39 40 39 32 26 28 30 29 29 30 29 30 29 29 29 30 31 31 31 33 34 35 36 36 36 37 37 37 37 36 36 37 38 39 39 41 42 43 43 43 43 44 45 46 45 44 44 45 47 47 47 46 46 45 46 46 46 44 43 41 39 39 39 40
33 33 34 34 34 34 34 34 34 34 35 36 35 35 36 36 36 37 38 39 40 42 43 43 41 34 30 30 30 29 29 30 30 31 31 30 30 31 31 32 33 34 35 36 36 37 38 38 38 38 37 36 37 38 39 39 39 41 43 43 43 44 44 45 46 46 45 45 45 46 47 47 46 46 45 45 45 45 45 43 42 40 39 39 40 41
34 33 32 33 34 35 35 35 35 36 38 38 37 36 37 38 39 40 40 40 42 44 46 44 40 35 32 31 31 30 30 31 31 32 32 32 32 32 32 33 35 35 35 36 37 38 39 39 38 38 37 37 38 39 39 39 40 42 44 44 44 44 45 45 46 46 45 45 46 47 47 47 46 46 45 45 45 44 44 42 42 41 41 41 42 42
35 35 34 34 34 35 36 36 36 39 40 38 36 37 38 39 40 40 41 42 45 47 46 43 38 35 34 33 32 32 32 32 32 32 33 34 34 34 34 34 35 35 35 36 37 38 39 38 38 37 37 38 39 40 39 39 41 44 45 45 45 45 45 46 46 46 45 45 46 47 48 48 47 46 45 45 44 44 43 42 42 42 42 43 43 43
39 39 39 38 38 38 38 38 39 41 40 37 37 39 40 41 41 42 43 45 47 47 44 40 37 37 36 35 34 34 33 33 33 33 33 34 34 35 35 35 35 35 35 36 37 38 38 38 38 37 37 38 39 39 39 40 43 44 46 46 45 45 45 46 46 46 45 46 48 48 49 48 47 46 46 45 44 43 42 42 42 43 43 44 44 43
40 42 43 43 42 42 42 42 43 43 40 39 41 42 42 43 44 45 46 46 45 42 40 38 38 37 37 36 35 34 34 34 34 34 34 34 34 34 35 35 35 35 35 35 36 37 38 38 37 36 36 37 38 39 40 42 44 45 46 47 46 45 46 46 46 46 47 48 49 49 49 48 47 46 45 45 44 42 42 42 42 43 44 44 44 42
39 41 43 44 45 45 46 46 46 46 45 45 44 44 44 44 45 45 44 43 40 37 36 37 37 36 35 34 33 32 32 32 32 33 33 33 33 33 33 34 34 34 35 35 36 37 38 37 36 34 35 37 38 40 42 43 44 46 47 47 47 46 46 46 46 47 48 49 50 49 49 48 47 46 45 44 43 42 41 42 42 43 44 43 42 39
39 38 40 42 44 45 46 47 48 48 48 46 43 42 42 42 42 42 42 40 35 32 34 35 33 32 30 30 29 29 29 29 30 30 31 31 32 32 33 33 34 34 35 36 36 36 36 36 35 35 37 38 40 42 43 44 45 46 47 48 48 47 47 47 47 49 49 50 50 49 49 48 47 45 44 43 43 42 41 42 43 43 42 40 38 36
37 37 37 39 41 43 43 44 45 45 44 41 39 38 38 39 39 40 39 35 30 29 32 32 29 28 28 28 27 27 27 27 27 28 29 29 30 31 32 33 33 33 34 35 35 35 35 35 36 37 38 39 41 43 44 45 46 46 47 48 48 47 47 47 48 49 50 50 50 49 48 47 46 45 44 43 42 42 42 42 43 42 39 38 36 34
36 36 37 38 39 39 40 41 42 41 40 38 36 36 36 37 37 38 37 33 29 28 29 28 27 27 28 27 27 27 27 27 27 27 28 29 29 30 31 32 33 33 34 34 34 34 35 36 37 38 39 40 42 44 45 45 46 46 46 47 47 47 47 47 49 50 50 49 49 49 48 46 45 45 44 43 42 42 42 41 40 39 37 37 35 32
36 37 37 38 38 38 39 40 41 41 39 38 37 37 37 37 37 36 34 32 30 29 28 27 26 26 27 27 27 28 28 28 29 29 30 30 31 32 33 33 34 34 34 34 33 34 36 37 38 39 40 42 43 45 46 46 46 46 46 46 47 48 48 48 50 50 50 49 49 48 47 46 45 44 44 43 42 41 39 37 36 35 35 35 32 29
36 36 37 38 38 38 39 41 41 41 40 38 38 38 38 37 37 36 34 33 32 31 30 29 28 28 27 28 29 29 29 29 29 30 31 32 33 34 34 35 35 35 34 34 35 36 37 38 39 40 42 43 44 45 46 46 47 47 47 46 47 49 49 49 50 50 50 49 48 47 46 46 45 45 44 43 41 39 38 35 33 33 33 32 29 26
37 37 38 38 38 39 40 41 42 42 41 40 39 38 39 39 38 37 35 34 33 32 32 32 31 30 29 29 30 30 29 30 30 31 32 33 34 35 35 36 36 36 35 35 36 37 38 39 40 41 43 44 44 45 46 47 47 47 47 47 48 49 49 49 49 49 49 48 47 46 46 46 46 46 44 43 41 39 37 34 32 31 31 29 28 26
39 39 39 40 40 40 41 42 42 42 42 42 41 40 39 39 39 38 37 36 35 35 35 34 34 33 32 32 32 31 31 31 31 31 32 33 33 34 35 35 35 35 35 35 35 36 37 39 41 43 43 44 45 45 46 47 48 47 47 47 48 49 49 48 48 48 48 47 46 46 46 47 47 46 44 42 40 38 35 32 29 28 27 28 28 27
42 41 41 42 42 42 42 42 43 43 43 43 43 41 40 40 40 40 39 38 38 38 37 37 37 36 35 35 35 35 34 32 32 32 32 32 32 33 33 33 33 33 34 34 35 37 38 40 42 43 44 44 45 45 46 47 47 46 46 46 48 48 48 48 47 47 46 46 46 46 47 47 47 46 44 41 38 36 34 31 28 26 25 26 27 25
44 43 43 44 44 44 44 44 45 45 45 44 44 43 42 42 43 43 43 42 41 40 39 39 38 38 38 38 38 38 37 35 34 33 32 32 32 32 33 33 33 33 34 35 37 38 39 41 43 43 44 45 45 46 46 46 45 45 45 46 47 47 47 47 46 45 45 46 46 46 46 47 47 45 43 40 37 35 33 31 28 26 25 26 25 22
46 45 45 46 46 45 46 47 47 46 46 45 45 45 45 45 45 45 45 45 43 42 41 40 40 40 40 40 40 39 38 37 36 35 34 34 34 34 34 34 35 35 36 37 38 39 41 42 43 44 44 45 45 45 45 45 44 45 45 45 46 47 46 45 44 44 45 46 46 46 46 46 46 45 42 39 36 34 32 31 28 25 24 25 24 22
48 47 47 48 47 46 48 49 48 47 47 47 47 47 47 47 47 46 45 45 44 43 42 41 40 40 40 40 40 39 38 38 37 37 36 36 35 36 36 36 37 38 39 40 41 42 43 43 44 44 45 45 45 45 45 45 45 46 45 45 46 46 45 44 43 44 45 45 45 45 45 45 45 44 41 38 35 33 32 30 27 24 24 26 25 23
49 49 49 49 48 48 50 50 49 48 48 49 49 49 49 48 48 47 46 45 44 43 42 41 40 40 40 39 39 39 39 39 38 38 38 37 37 37 38 38 39 40 41 42 43 43 44 44 43 44 45 46 46 46 46 46 46 46 46 45 45 44 43 42 42 43 44 44 44 44 44 44 44 42 40 38 36 34 33 29 26 24 25 25 24 22
50 51 50 50 50 50 51 51 50 49 50 50 51 51 50 49 48 47 46 45 44 43 42 41 41 40 40 40 40 40 40 39 39 39 39 39 39 40 40 40 41 42 43 43 44 44 44 44 44 45 46 47 47 47 47 47 47 46 45 44 44 42 42 41 42 43 43 43 43 44 44 44 43 41 39 37 36 35 32 29 26 25 24 22 21 21
51 51 51 51 51 51 52 52 51 50 50 50 50 50 49 48 47 46 45 44 43 43 42 41 41 41 41 41 41 41 40 40 40 40 40 41 41 41 41 41 42 43 44 45 45 44 44 44 45 47 48 48 48 48 47 47 46 45 44 43 42 41 41 41 41 41 41 41 42 43 43 42 42 40 39 38 36 34 31 28 25 23 21 19 19 19
Wind_Direction
205 200 190 183 182 186 191 200 209 212 204 184 176 188 195 199 205 210 215 205 176 166 157 98 93 84 53 36 12 349 340 325 317 318 325 338 359 27 35 34 24 15 5 359 360 2 4 360 355 351 345 338 332 326 321 316 312 311 312 314 316 316 316 317 322 321 315 313 314 314 316 315 312 310 309 307 308 309 308 308 309 310 309 307 301 292
199 194 190 190 189 193 199 206 213 221 224 207 189 187 192 198 204 212 220 210 191 181 180 119 97 92 68 54 22 347 330 313 306 307 314 322 325 349 19 27 13 360 350 342 344 350 351 348 344 341 336 332 329 325 321 317 314 313 312 313 313 312 311 311 315 317 316 316 316 315 315 314 311 309 308 305 306 308 309 310 311 312 312 312 309 303
193 197 202 202 197 199 206 213 216 221 229 225 220 212 196 196 202 206 212 201 197 198 199 165 95 96 76 51 16 341 311 297 292 293 302 308 306 307 332 6 359 341 336 331 333 341 343 341 337 336 336 337 335 333 331 327 322 319 318 318 316 315 314 315 318 318 317 316 315 314 313 312 310 307 306 303 303 304 305 307 309 311 310 308 308 308
196 207 214 208 202 207 214 222 225 226 228 226 229 228 214 209 209 214 236 241 245 245 236 244 129 100 41 346 331 312 290 283 279 283 292 295 295 295 301 310 309 308 315 318 323 331 337 337 335 336 338 339 340 339 337 333 329 326 323 321 320 319 320 320 319 318 316 313 310 309 307 306 305 304 303 302 303 302 301 302 305 307 308 308 309 310
207 218 217 213 215 221 227 231 232 227 224 226 230 228 225 225 222 221 231 243 254 256 255 264 250 45 343 321 310 295 277 271 269 274 281 285 286 287 292 296 298 299 309 314 319 328 338 340 338 340 340 339 340 339 338 334 330 326 322 320 320 321 322 320 319 317 315 313 310 308 306 304 304 303 303 304 304 305 304 303 303 304 305 308 310 310
217 223 221 224 230 235 236 234 234 228 223 227 233 234 232 232 234 237 233 237 249 255 262 266 267 313 317 311 311 307 273 259 262 267 270 275 280 283 284 289 299 309 318 319 322 330 337 341 341 342 340 335 333 333 336 335 331 328 323 321 321 322 322 320 318 317 315 314 312 310 308 307 306 305 306 306 306 305 305 305 303 302 301 301 301 301
220 222 226 232 236 239 242 240 239 236 231 231 234 237 235 234 242 251 246 241 246 253 259 267 282 289 300 308 314 322 287 254 255 262 265 268 272 279 282 284 294 307 319 319 321 328 333 338 340 340 339 334 328 325 326 328 328 329 327 323 321 320 320 320 317 315 313 312 311 310 310 309 307 306 306 306 306 305 305 304 304 303 302 301 299 297
216 222 229 235 240 242 246 245 244 244 241 236 235 237 236 237 243 251 250 248 251 257 262 276 287 277 287 305 306 321 303 254 252 262 267 266 263 269 277 281 289 299 312 315 315 324 329 335 337 336 336 335 331 326 321 320 322 325 327 325 322 319 318 319 318 317 316 315 316 316 314 313 312 311 310 310 309 309 308 307 307 307 306 305 304 302
213 220 228 234 240 243 245 245 246 248 248 245 243 240 238 238 243 248 253 258 261 263 267 280 283 272 279 296 296 310 304 256 251 263 267 264 259 264 274 279 283 290 301 308 311 318 323 330 334 333 333 332 330 327 323 321 321 323 326 325 324 320 319 321 321 321 321 321 321 320 318 316 316 316 316 315 315 314 313 312 310 309 308 307 306 305
216 220 228 233 237 240 243 244 246 248 248 250 252 249 246 245 246 250 256 262 263 264 269 274 277 274 274 285 291 303 299 263 254 262 266 265 262 266 275 279 281 285 293 299 303 310 316 322 327 330 331 329 326 324 323 323 323 323 324 324 324 320 319 321 322 322 322 322 321 319 318 317 317 318 318 319 319 318 316 314 313 311 309 307 305 304
219 224 232 238 241 244 246 245 246 248 248 249 251 253 256 256 256 257 260 264 264 267 272 273 275 274 267 273 287 299 301 277 261 262 266 267 266 269 276 279 280 285 290 292 295 302 308 314 320 325 328 326 322 320 321 322 322 322 321 322 321 318 316 317 319 320 320 319 318 318 318 319 319 320 320 321 320 319 319 317 316 315 314 312 309 306
220 226 234 241 245 246 247 245 244 246 246 244 245 247 253 256 259 262 263 267 269 273 277 274 274 272 261 263 279 290 300 284 266 259 261 263 265 269 274 277 280 285 288 290 293 297 302 308 315 320 323 322 320 319 320 320 320 319 319 319 318 314 312 314 318 319 319 319 319 320 321 322 322 322 322 322 321 320 319 318 318 318 317 316 313 309
220 226 231 235 239 239 239 237 236 238 237 234 236 240 245 249 254 261 264 269 275 279 279 274 273 269 262 264 274 286 293 277 263 258 254 256 261 265 269 273 280 284 285 289 293 294 299 305 312 316 318 320 320 319 320 320 318 318 317 316 316 313 311 315 319 319 319 319 320 321 322 322 322 322 322 322 321 319 317 316 315 315 315 314 312 309
223 226 228 229 231 233 232 228 226 231 232 230 233 237 242 247 253 261 268 273 278 281 281 278 275 271 269 272 276 284 283 266 258 256 252 253 258 260 264 272 281 283 283 285 289 292 296 302 308 311 314 317 319 320 320 319 318 317 316 315 315 313 312 316 319 318 317 318 319 319 320 321 320 320 320 320 319 318 316 314 313 313 313 311 309 307
224 227 229 230 230 229 226 218 216 225 237 242 243 245 248 253 259 265 272 277 281 283 282 282 281 281 283 283 282 282 275 259 253 253 252 254 257 260 264 273 280 281 281 282 284 288 292 297 302 306 309 314 316 319 319 318 317 316 315 314 314 313 312 316 318 317 316 317 318 318 318 318 318 318 318 318 317 316 314 313 312 312 312 311 308 306
223 225 227 228 225 218 209 213 223 229 243 253 255 256 256 259 265 270 275 278 280 281 281 283 283 284 286 286 284 280 272 260 253 253 255 256 258 262 267 274 278 279 280 281 283 287 290 294 298 302 307 311 314 316 318 317 317 316 315 314 313 312 312 315 317 316 316 317 318 317 317 317 317 317 318 317 316 314 312 312 312 313 313 312 310 307
225 226 227 224 221 217 211 220 232 237 247 256 259 261 262 264 269 273 276 276 276 276 277 279 281 283 285 286 283 279 275 268 261 258 258 258 259 263 269 274 276 277 279 280 284 288 290 293 296 300 304 308 311 314 316 316 316 316 315 313 312 312 312 314 316 315 316 317 317 317 317 317 317 318 317 316 314 313 312 313 314 316 316 314 311 308
222 222 225 220 217 223 225 230 239 245 251 257 257 257 261 268 273 274 276 276 275 274 273 274 276 280 284 287 286 285 284 281 276 271 266 263 263 266 271 273 274 277 279 280 283 287 290 293 295 299 303 305 308 311 314 315 316 315 314 312 312 311 311 314 315 314 315 316 316 317 318 318 318 318 317 315 314 314 314 315 316 318 318 316 312 309
214 212 219 217 212 221 231 236 242 247 251 252 252 255 259 265 273 278 280 281 280 276 271 270 271 274 279 283 285 288 290 289 287 281 275 271 268 268 270 271 273 276 278 279 281 285 288 290 293 297 300 303 306 309 312 314 315 314 312 311 311 310 310 313 313 313 314 315 316 317 318 319 319 317 316 315 315 315 315 316 318 320 320 317 313 309
212 208 215 219 216 220 229 236 241 245 250 252 254 260 264 269 278 284 284 283 281 278 273 267 266 268 271 275 279 285 289 290 288 284 280 276 273 270 269 269 271 275 278 279 280 283 286 288 291 295 298 302 305 307 309 312 313 312 310 310 310 308 309 311 312 312 314 314 315 317 318 319 318 317 317 317 316 316 317 318 320 322 321 318 313 309
214 208 210 218 222 225 230 239 245 247 250 254 259 266 272 279 287 293 291 284 278 277 276 273 270 267 266 269 274 280 285 287 287 285 283 281 277 272 269 268 271 275 278 278 280 282 284 286 290 294 298 302 304 305 308 310 310 309 309 309 308 306 308 310 311 312 313 314 315 316 318 318 318 318 318 317 317 317 318 319 321 322 322 319 314 309
216 212 209 213 223 232 237 243 247 246 247 253 261 268 275 284 292 300 302 295 283 278 280 282 280 270 266 270 272 276 281 283 284 285 285 284 282 276 271 270 272 274 276 277 279 281 282 285 290 295 299 302 303 304 307 308 307 307 308 308 307 306 307 309 310 312 313 313 315 316 317 318 319 319 319 318 317 318 319 320 322 323 322 319 315 310
218 216 212 213 221 229 236 242 245 244 246 254 261 267 278 288 294 299 303 301 294 287 284 284 279 267 271 275 272 275 278 281 285 287 286 284 281 278 275 273 272 273 273 275 277 279 281 287 293 296 299 301 302 303 305 305 304 305 307 308 307 306 306 307 309 311 313 313 314 315 316 318 319 319 319 318 317 318 319 321 322 322 322 319 315 310
216 215 213 215 219 224 229 236 239 239 244 254 263 273 283 287 289 295 301 300 295 295 292 283 274 269 277 277 275 277 278 281 288 292 290 286 281 277 274 272 271 271 271 273 276 279 284 290 294 296 298 301 302 303 304 302 302 303 306 307 307 305 305 306 309 311 313 313 313 315 316 318 319 319 319 318 318 318 319 321 322 322 321 318 314 311
218 217 215 216 219 221 224 230 235 241 251 261 268 276 279 279 281 289 295 296 294 296 293 286 279 277 280 280 280 282 283 286 291 293 292 289 286 282 277 273 271 271 272 274 277 281 286 290 292 295 298 301 302 303 302 301 301 303 305 307 307 305 304 306 309 312 312 312 313 314 315 317 318 318 318 318 318 318 319 320 321 322 320 317 314 312
222 221 221 223 225 226 230 240 251 262 269 269 269 269 270 273 278 283 287 290 293 292 289 287 285 277 275 283 286 287 289 292 293 293 291 288 286 284 281 277 275 273 274 276 279 282 286 288 291 295 299 301 302 302 300 299 300 303 305 306 306 304 304 307 311 313 312 313 313 314 315 316 317 318 319 319 319 318 319 319 321 321 320 316 313 312
225 224 226 230 235 238 243 253 261 265 267 266 264 264 267 272 276 280 284 287 290 289 286 289 290 280 274 285 290 290 292 293 293 293 290 285 283 281 279 277 274 273 275 277 280 283 285 287 291 295 298 300 301 300 299 299 300 303 304 305 305 304 305 309 313 314 313 313 313 314 315 315 317 318 319 319 319 318 318 319 320 321 319 316 313 311
228 229 229 231 235 239 241 244 247 250 254 256 259 263 266 271 273 277 283 286 289 289 289 292 293 289 286 291 291 291 291 291 292 292 288 285 282 280 278 276 273 272 275 277 279 281 284 287 291 295 297 298 298 298 297 298 300 302 303 305 305 304 306 310 313 314 314 313 313 314 314 315 316 318 318 318 318 317 317 318 320 320 319 315 312 310
228 230 231 232 234 236 237 240 243 246 250 254 260 265 268 271 273 277 282 287 289 290 292 294 293 293 297 295 290 289 289 289 290 291 288 286 283 281 279 277 275 275 277 278 279 281 285 288 291 293 295 296 295 295 295 296 298 300 303 305 306 307 308 311 313 314 314 313 313 313 314 315 316 317 317 317 316 316 316 317 319 320 319 316 312 310
229 231 233 233 235 236 237 239 243 247 252 257 262 267 269 271 275 278 282 286 288 289 292 294 293 295 298 293 287 286 287 287 288 287 286 285 283 281 279 278 277 278 278 279 280 283 286 288 290 292 292 293 293 293 294 295 298 301 304 307 309 310 310 311 312 313 313 313 313 313 314 315 315 316 316 316 315 315 316 316 318 320 320 317 314 312
233 236 238 238 238 239 241 243 247 251 255 259 263 267 270 272 276 280 282 284 286 288 291 293 295 297 295 288 285 285 284 283 284 283 283 283 282 280 279 278 277 277 277 278 281 283 286 287 289 290 290 291 292 292 293 295 298 302 306 309 310 311 311 310 311 312 312 312 312 312 313 314 315 315 315 315 315 315 315 315 316 319 320 318 316 314
238 239 242 243 243 244 246 248 251 255 257 259 262 266 269 272 275 277 279 282 286 289 291 293 297 298 292 286 285 284 282 282 282 282 283 283 282 280 279 278 277 276 276 278 280 282 284 286 287 288 289 290 290 291 293 296 300 304 307 308 310 311 311 310 311 311 311 311 311 311 312 313 314 315 315 316 316 316 315 314 314 316 319 319 317 315
241 241 243 245 246 247 248 250 252 255 257 259 263 266 268 271 273 275 279 284 287 289 291 294 296 294 288 286 286 283 282 282 283 284 284 282 281 279 277 276 275 275 276 277 279 280 282 284 286 288 289 289 289 291 295 298 302 305 306 307 309 310 310 310 310 310 310 310 310 311 312 314 315 316 316 316 316 315 314 312 312 314 317 319 319 316
247 246 247 248 248 249 250 251 252 254 257 261 265 268 269 271 274 278 282 285 287 288 291 294 294 291 288 287 284 282 282 283 283 283 282 281 279 277 275 273 273 274 275 276 277 279 281 284 286 287 288 289 290 293 296 299 302 304 305 306 308 310 310 309 309 309 309 309 310 312 313 315 316 316 316 316 316 314 312 311 311 313 316 318 318 316
250 250 251 252 252 252 252 253 254 257 261 265 268 270 272 274 277 280 282 283 285 288 290 292 291 289 287 285 283 284 284 284 283 282 280 278 276 274 273 272 271 272 273 274 276 278 281 283 284 286 288 289 290 293 296 299 301 302 304 305 307 308 308 308 307 308 309 310 312 313 315 315 316 316 315 315 314 313 311 311 311 312 315 316 317 315
250 250 251 253 253 253 254 255 257 261 264 266 268 271 274 276 278 279 280 282 283 286 289 289 287 285 285 285 285 286 285 285 284 281 278 276 274 273 272 271 271 272 273 274 276 277 279 281 283 287 287 287 288 291 295 299 301 302 304 305 306 306 307 307 308 309 310 312 314 314 315 315 315 314 314 313 312 312 311 310 310 312 313 315 315 313
249 248 249 251 252 253 255 256 258 261 264 265 268 272 274 275 276 278 279 279 282 286 287 285 284 284 285 286 286 286 285 284 282 279 277 276 275 274 273 273 273 274 274 274 275 276 278 281 283 284 283 283 286 291 296 300 302 303 304 304 304 306 307 308 309 310 312 313 314 314 314 314 314 313 312 312 311 311 310 309 310 311 312 314 313 311
248 247 247 249 251 253 255 257 258 260 263 265 269 271 272 274 275 276 276 278 282 284 282 281 284 286 287 287 286 284 283 281 279 278 277 277 275 275 275 275 275 275 275 275 276 277 279 281 280 279 279 282 288 294 298 301 303 303 304 304 305 307 308 309 310 311 312 313 313 313 314 313 313 312 312 311 311 310 309 308 309 310 312 313 311 308
247 247 247 249 251 253 255 258 259 261 264 266 268 269 270 272 274 275 276 277 280 280 279 282 286 287 287 287 285 284 282 280 278 278 277 276 275 275 275 275 275 275 275 275 276 278 279 278 278 278 280 286 292 296 299 301 302 303 305 306 307 307 308 309 310 310 311 312 312 313 313 312 312 312 312 311 310 309 308 308 309 309 311 311 309 307
244 246 248 250 252 255 257 259 261 263 264 266 267 268 269 270 272 273 275 276 277 278 280 282 284 285 286 285 284 283 281 279 278 277 276 275 274 274 273 274 274 274 274 275 277 278 278 277 278 281 285 291 295 297 298 300 301 303 304 305 306 306 306 307 308 309 311 312 312 312 312 312 313 312 312 311 310 309 309 309 309 309 309 308 307 306
243 245 248 251 253 255 257 260 261 262 264 266 267 268 268 268 269 271 274 276 277 279 280 279 278 281 283 283 282 281 281 280 280 279 278 276 275 274 273 273 273 274 275 277 278 278 278 279 282 286 291 294 296 297 298 299 301 302 304 305 305 304 305 306 308 310 312 312 312 312 312 313 313 312 311 310 310 310 310 310 310 308 307 306 305 305
245 246 248 251 254 256 258 260 262 263 264 265 267 268 269 270 270 271 273 276 277 279 279 278 277 279 281 281 280 281 281 281 281 280 280 279 277 277 276 275 275 276 278 280 280 279 280 283 287 291 294 296 297 298 299 299 301 302 304 304 303 303 305 307 310 311 312 312 312 313 313 312 312 311 310 311 311 310 309 310 309 308 307 306 304 305
246 249 251 253 255 257 259 260 263 265 266 267 268 269 269 271 272 272 273 275 276 278 280 281 280 281 282 281 280 280 280 280 279 278 278 278 278 278 278 277 278 278 279 279 279 280 283 287 290 293 296 297 298 299 299 300 301 302 303 303 303 304 306 310 311 312 312 312 312 312 312 311 311 311 311 311 311 309 307 307 305 304 306 306 303 304
248 250 252 254 256 258 260 262 264 265 267 268 269 269 270 271 273 273 274 276 278 280 283 283 283 283 283 281 280 278 277 276 277 277 278 278 279 278 278 278 278 277 277 277 279 283 287 292 295 296 297 298 298 299 299 300 301 302 303 304 304 306 309 312 312 312 311 311 312 312 311 311 310 310 310 310 309 307 305 303 299 297 300 301 300 302
251 251 253 256 258 259 261 263 264 265 267 268 270 271 272 273 274 275 276 277 279 281 283 284 283 282 282 280 279 278 276 275 276 277 278 279 279 278 277 277 276 277 278 280 284 288 292 295 297 297 297 298 298 298 299 299 301 303 305 306 307 309 311 312 311 311 310 311 311 311 311 310 310 310 310 309 307 304 301 300 296 292 290 290 293 299
253 253 255 257 258 259 261 262 263 264 266 268 270 271 272 274 276 277 278 279 280 281 282 281 280 279 279 278 278 278 279 279 280 281 281 281 280 280 280 279 280 281 284 287 289 292 294 296 296 296 297 297 298 298 298 300 303 306 307 308 309 310 311 311 310 310 310 310 310 311 311 310 309 309 309 308 305 302 300 297 292 288 284 284 287 294
254 255 256 257 258 260 261 263 263 265 267 268 270 271 272 274 276 277 279 281 281 281 280 278 277 276 276 276 277 279 281 282 283 283 283 283 283 284 285 285 285 286 287 289 292 293 294 295 295 294 295 297 298 299 301 303 306 308 309 309 309 310 310 309 309 309 310 310 310 310 310 309 308 308 308 307 303 301 300 296 290 283 280 281 283 286
255 256 257 258 259 260 261 263 264 265 267 268 269 270 271 272 274 275 277 278 279 279 279 278 277 276 276 276 277 278 280 281 282 282 283 284 285 286 287 287 287 287 287 288 291 292 293 293 293 294 295 298 299 301 304 306 307 308 308 308 308 308 308 308 308 309 309 309 310 310 309 308 307 307 307 306 304 301 300 297 290 281 276 278 281 283
258 258 258 259 260 261 262 263 263 265 266 268 268 269 270 271 272 274 274 275 275 276 276 276 276 275 275 276 276 277 277 278 279 281 282 284 286 287 288 287 286 285 286 287 289 291 292 292 294 295 297 300 302 304 306 307 307 307 307 307 307 306 306 307 308 308 308 309 309 308 307 307 306 306 306 306 304 300 298 294 286 278 275 278 282 284
259 260 260 261 262 262 264 264 264 265 266 268 269 270 271 271 272 273 273 273 273 273 273 273 274 274 274 275 275 276 277 278 280 281 283 284 285 286 286 285 284 284 285 287 289 291 292 294 296 298 300 302 304 305 306 306 305 306 306 305 304 304 305 306 307 307 308 308 307 307 307 307 306 306 306 305 301 297 293 287 279 275 276 278 280 283
259 260 261 262 262 263 264 265 265 265 266 268 269 270 271 272 272 272 272 272 271 271 272 272 273 273 274 275 276 277 279 280 281 282 282 283 283 284 284 284 284 284 286 288 290 292 294 296 298 299 300 301 302 303 304 304 303 304 304 303 303 303 305 306 307 307 307 307 306 307 308 307 305 305 305 304 299 293 287 280 274 272 274 276 279 284
Height
5922 5923 5924 5925 5925 5926 5928 5929 5930 5932 5934 5937 5938 5939 5939 5939 5939 5940 5940 5940 5941 5941 5942 5942 5942 5943 5943 5942 5942 5941 5941 5940 5939 5939 5938 5937 5936 5936 5936 5935 5935 5935 5935 5934 5934 5934 5934 5933 5932 5932 5931 5931 5930 5930 5929 5928 5927 5927 5926 5925 5924 5923 5922 5922 5922 5921 5920 5919 5917 5916 5914 5912 5910 5908 5905 5902 5901 5900 5897 5896 5896 5895 5892 5889 5888 5889
5922 5922 5923 5924 5925 5926 5927 5928 5930 5931 5932 5934 5936 5938 5939 5939 5939 5940 5940 5940 5940 5941 5941 5941 5942 5942 5942 5942 5942 5941 5941 5940 5939 5938 5938 5937 5936 5936 5935 5935 5935 5935 5935 5934 5934 5933 5933 5933 5932 5932 5931 5930 5929 5929 5928 5927 5926 5925 5925 5924 5923 5922 5921 5921 5921 5920 5918 5916 5914 5913 5911 5909 5907 5905 5903 5901 5899 5897 5894 5892 5890 5889 5888 5886 5884 5885
5920 5921 5922 5923 5925 5926 5927 5929 5930 5931 5932 5933 5934 5935 5937 5938 5939 5939 5940 5940 5940 5940 5941 5941 5941 5941 5942 5942 5942 5941 5941 5940 5939 5938 5938 5937 5936 5936 5935 5935 5935 5935 5934 5934 5933 5933 5933 5932 5931 5931 5930 5929 5928 5927 5926 5925 5925 5924 5923 5922 5921 5921 5919 5918 5918 5917 5915 5913 5912 5910 5908 5906 5904 5902 5900 5898 5896 5895 5893 5889 5887 5885 5884 5882 5880 5879
5919 5920 5922 5924 5925 5926 5928 5929 5930 5931 5932 5932 5933 5934 5936 5937 5938 5939 5939 5940 5940 5940 5940 5940 5940 5940 5941 5941 5941 5941 5940 5939 5938 5938 5937 5937 5936 5935 5935 5935 5935 5935 5934 5933 5933 5933 5932 5931 5930 5929 5929 5928 5927 5926 5925 5924 5923 5923 5922 5921 5920 5919 5917 5916 5915 5914 5913 5911 5910 5908 5906 5904 5902 5899 5897 5895 5893 5891 5890 5888 5885 5882 5880 5878 5876 5874
5919 5920 5922 5924 5925 5926 5927 5929 5930 5931 5931 5932 5933 5934 5935 5936 5937 5938 5938 5939 5939 5939 5939 5939 5939 5939 5939 5940 5940 5940 5939 5938 5937 5936 5936 5936 5935 5935 5935 5935 5935 5934 5933 5933 5932 5932 5931 5930 5929 5928 5928 5927 5926 5925 5924 5923 5923 5922 5921 5920 5919 5918 5916 5914 5913 5911 5910 5909 5907 5906 5904 5902 5900 5897 5894 5892 5889 5887 5885 5884 5883 5880 5877 5875 5874 5873
5919 5921 5922 5924 5925 5926 5927 5928 5929 5929 5930 5931 5932 5933 5934 5935 5936 5937 5937 5937 5937 5938 5938 5938 5938 5938 5938 5939 5939 5938 5938 5937 5936 5935 5935 5935 5935 5934 5934 5934 5934 5933 5933 5932 5932 5931 5931 5930 5929 5928 5927 5926 5925 5924 5923 5923 5922 5921 5920 5919 5918 5916 5915 5913 5911 5910 5908 5906 5905 5903 5902 5900 5897 5895 5892 5890 5887 5885 5882 5881 5880 5878 5877 5875 5874 5872
5918 5920 5921 5923 5924 5925 5926 5927 5927 5928 5929 5931 5931 5932 5933 5934 5935 5936 5936 5936 5936 5936 5936 5936 5936 5936 5937 5937 5937 5937 5936 5935 5935 5934 5934 5934 5934 5933 5933 5933 5933 5932 5932 5931 5930 5930 5930 5929 5928 5927 5926 5925 5924 5923 5922 5921 5920 5919 5918 5917 5916 5914 5913 5912 5910 5908 5907 5905 5903 5902 5900 5898 5895 5893 5891 5888 5885 5883 5881 5879 5876 5875 5873 5872 5870 5869
5918 5919 5920 5921 5923 5923 5924 5925 5926 5927 5928 5929 5930 5931 5932 5933 5934 5934 5934 5934 5935 5935 5935 5935 5935 5935 5935 5935 5935 5935 5934 5933 5933 5932 5933 5933 5933 5932 5932 5931 5932 5931 5931 5930 5929 5929 5928 5928 5927 5926 5924 5923 5922 5921 5920 5919 5918 5917 5915 5914 5913 5912 5911 5909 5908 5906 5905 5903 5901 5899 5897 5895 5893 5891 5888 5886 5883 5881 5878 5876 5873 5871 5869 5867 5865 5863
5917 5918 5919 5920 5921 5922 5923 5924 5924 5925 5926 5927 5928 5929 5930 5931 5931 5932 5932 5932 5932 5932 5933 5933 5933 5933 5933 5934 5933 5933 5933 5932 5931 5931 5932 5932 5931 5931 5930 5930 5930 5930 5930 5929 5928 5927 5927 5926 5925 5924 5923 5922 5921 5919 5918 5917 5915 5914 5912 5911 5910 5909 5907 5906 5904 5903 5901 5899 5897 5895 5893 5891 5889 5887 5885 5882 5880 5878 5875 5873 5871 5868 5865 5862 5860 5859
5915 5917 5918 5919 5920 5920 5921 5922 5923 5924 5925 5925 5926 5927 5927 5928 5929 5929 5929 5930 5930 5930 5931 5932 5931 5931 5931 5932 5932 5931 5931 5930 5929 5930 5930 5930 5930 5930 5929 5929 5929 5929 5929 5928 5926 5925 5925 5925 5924 5923 5922 5920 5919 5918 5916 5914 5912 5911 5909 5908 5907 5905 5904 5903 5901 5899 5898 5896 5894 5892 5890 5888 5885 5883 5880 5878 5876 5873 5871 5869 5867 5865 5863 5860 5858 5855
5914 5915 5916 5917 5918 5918 5918 5919 5920 5921 5922 5923 5923 5924 5925 5925 5926 5926 5927 5927 5927 5928 5929 5930 5929 5929 5929 5930 5930 5930 5929 5928 5927 5928 5928 5929 5929 5928 5928 5927 5926 5927 5927 5926 5925 5924 5923 5923 5922 5921 5920 5919 5917 5915 5914 5912 5910 5908 5907 5905 5904 5903 5902 5900 5899 5897 5895 5893 5892 5890 5887 5885 5883 5880 5877 5875 5872 5869 5867 5864 5862 5860 5857 5855 5853 5851
5913 5914 5915 5916 5916 5916 5917 5918 5918 5919 5920 5921 5922 5923 5923 5923 5924 5924 5925 5925 5925 5926 5927 5927 5927 5926 5926 5928 5929 5928 5927 5926 5926 5926 5927 5927 5927 5926 5926 5925 5924 5924 5924 5923 5922 5921 5921 5921 5920 5919 5918 5916 5915 5913 5911 5910 5908 5906 5905 5903 5902 5901 5900 5898 5896 5894 5892 5890 5888 5887 5885 5883 5880 5878 5875 5872 5869 5866 5863 5860 5858 5855 5852 5849 5846 5844
5912 5912 5913 5914 5914 5915 5916 5916 5917 5917 5918 5919 5920 5921 5922 5922 5922 5922 5923 5923 5923 5924 5924 5924 5924 5923 5924 5926 5926 5926 5925 5925 5924 5924 5925 5925 5925 5924 5924 5923 5922 5921 5921 5921 5920 5919 5919 5918 5917 5916 5915 5914 5912 5911 5909 5907 5905 5904 5902 5901 5899 5898 5897 5895 5892 5890 5888 5886 5884 5883 5881 5879 5877 5875 5873 5870 5867 5864 5861 5858 5855 5853 5850 5847 5843 5839
5909 5910 5911 5912 5913 5913 5914 5915 5916 5916 5917 5918 5919 5919 5920 5920 5920 5921 5921 5921 5921 5921 5921 5921 5921 5920 5922 5923 5923 5923 5923 5923 5922 5922 5922 5923 5923 5922 5922 5921 5919 5919 5918 5918 5918 5917 5916 5916 5915 5914 5913 5911 5910 5908 5906 5905 5903 5901 5899 5898 5897 5895 5894 5892 5889 5887 5885 5883 5881 5879 5877 5876 5874 5872 5870 5867 5864 5861 5858 5855 5852 5850 5847 5845 5841 5837
5907 5908 5909 5911 5912 5912 5913 5914 5914 5915 5915 5916 5917 5917 5918 5918 5919 5919 5919 5918 5918 5918 5918 5919 5918 5918 5919 5920 5920 5920 5921 5921 5920 5919 5919 5920 5920 5920 5920 5919 5917 5916 5916 5915 5915 5915 5914 5913 5912 5911 5910 5909 5907 5906 5904 5902 5900 5898 5897 5895 5894 5892 5891 5889 5887 5885 5882 5880 5878 5876 5874 5872 5871 5868 5866 5864 5861 5858 5854 5851 5848 5846 5843 5840 5837 5833
5905 5907 5908 5909 5910 5910 5911 5912 5912 5913 5914 5914 5915 5916 5916 5917 5917 5917 5917 5916 5916 5916 5916 5916 5916 5916 5916 5917 5917 5918 5918 5918 5918 5917 5917 5917 5917 5917 5917 5916 5915 5914 5913 5912 5912 5912 5911 5911 5910 5909 5908 5906 5904 5903 5901 5899 5897 5896 5894 5892 5891 5889 5888 5886 5884 5882 5880 5877 5875 5873 5871 5869 5867 5865 5862 5860 5857 5854 5851 5848 5844 5841 5838 5835 5831 5828
5905 5906 5907 5908 5908 5909 5910 5910 5911 5912 5913 5913 5913 5914 5915 5915 5915 5915 5915 5914 5914 5914 5913 5914 5914 5914 5915 5915 5915 5915 5915 5915 5915 5915 5914 5914 5914 5914 5914 5913 5912 5911 5910 5909 5909 5908 5908 5907 5906 5905 5904 5903 5901 5899 5898 5896 5894 5893 5891 5889 5888 5887 5885 5883 5881 5879 5877 5874 5872 5870 5868 5866 5863 5861 5858 5855 5853 5850 5847 5844 5840 5837 5833 5830 5826 5823
5904 5905 5905 5906 5907 5907 5908 5909 5910 5911 5911 5912 5912 5913 5913 5914 5913 5913 5913 5912 5912 5912 5912 5912 5912 5913 5913 5913 5912 5912 5912 5912 5912 5912 5912 5911 5911 5911 5911 5910 5909 5908 5907 5907 5906 5905 5905 5904 5903 5902 5901 5900 5899 5897 5895 5893 5891 5890 5888 5886 5885 5884 5882 5880 5878 5876 5874 5871 5869 5867 5865 5862 5859 5857 5854 5851 5848 5845 5842 5839 5836 5832 5829 5825 5821 5818
5901 5902 5903 5903 5904 5905 5906 5907 5908 5909 5909 5910 5911 5911 5911 5912 5911 5911 5911 5910 5910 5910 5910 5910 5911 5911 5911 5911 5910 5910 5909 5909 5909 5909 5909 5908 5908 5907 5907 5907 5906 5905 5905 5904 5903 5902 5902 5901 5900 5899 5898 5897 5896 5894 5892 5890 5888 5887 5885 5883 5882 5880 5879 5877 5874 5872 5870 5868 5865 5863 5861 5858 5855 5853 5850 5847 5844 5841 5837 5834 5831 5827 5824 5820 5817 5814
5898 5899 5900 5901 5902 5903 5903 5904 5905 5907 5907 5908 5909 5909 5909 5909 5909 5909 5908 5908 5908 5908 5908 5908 5909 5910 5910 5909 5908 5908 5907 5907 5906 5906 5905 5905 5904 5904 5904 5903 5903 5902 5902 5901 5900 5899 5899 5898 5897 5896 5895 5894 5893 5891 5889 5887 5886 5884 5882 5880 5879 5877 5875 5873 5871 5869 5867 5864 5862 5859 5857 5854 5851 5849 5845 5842 5839 5836 5833 5829 5826 5822 5819 5815 5812 5809
5895 5896 5897 5898 5899 5900 5901 5902 5904 5905 5905 5906 5906 5906 5906 5907 5906 5906 5906 5906 5906 5905 5906 5906 5907 5908 5908 5906 5906 5905 5905 5904 5903 5903 5902 5901 5901 5901 5900 5900 5900 5899 5898 5897 5897 5896 5896 5895 5894 5893 5892 5891 5889 5887 5886 5884 5883 5881 5879 5877 5875 5874 5872 5870 5867 5865 5863 5860 5858 5855 5853 5850 5847 5844 5841 5838 5834 5831 5828 5824 5821 5818 5814 5811 5808 5805
5892 5893 5895 5896 5897 5898 5899 5900 5902 5903 5903 5903 5903 5904 5904 5904 5904 5904 5904 5903 5903 5903 5904 5904 5905 5906 5905 5904 5903 5903 5902 5902 5901 5900 5899 5899 5898 5897 5897 5897 5896 5896 5895 5894 5893 5893 5892 5891 5890 5889 5888 5887 5886 5884 5882 5881 5879 5877 5876 5874 5872 5870 5868 5866 5863 5861 5859 5856 5854 5851 5848 5846 5843 5840 5836 5833 5830 5826 5823 5820 5816 5813 5810 5806 5803 5801
5890 5891 5892 5894 5895 5896 5897 5898 5899 5900 5900 5900 5901 5901 5902 5902 5902 5902 5901 5901 5901 5901 5901 5901 5902 5904 5903 5902 5901 5900 5900 5900 5898 5897 5897 5896 5895 5895 5894 5894 5893 5892 5892 5891 5890 5890 5889 5888 5886 5885 5885 5884 5882 5880 5878 5877 5876 5874 5872 5870 5868 5866 5864 5862 5859 5857 5854 5852 5850 5847 5844 5841 5838 5835 5832 5829 5825 5822 5819 5816 5812 5809 5805 5802 5799 5796
5887 5888 5889 5891 5892 5893 5894 5895 5896 5897 5897 5898 5898 5899 5899 5899 5899 5899 5899 5898 5898 5899 5899 5898 5899 5901 5900 5899 5898 5898 5898 5897 5896 5895 5894 5893 5892 5892 5891 5891 5890 5889 5888 5887 5887 5886 5885 5884 5883 5882 5881 5880 5878 5876 5874 5873 5872 5870 5868 5866 5864 5862 5860 5857 5855 5853 5850 5848 5845 5843 5840 5837 5834 5830 5827 5824 5821 5818 5815 5811 5808 5805 5802 5798 5795 5792
5884 5885 5887 5888 5889 5890 5891 5892 5892 5894 5894 5895 5895 5896 5896 5896 5896 5896 5896 5895 5895 5896 5896 5895 5897 5898 5897 5896 5896 5895 5895 5894 5893 5892 5891 5890 5889 5888 5888 5887 5887 5886 5885 5884 5883 5882 5881 5880 5879 5878 5877 5876 5874 5872 5870 5869 5867 5865 5863 5861 5859 5857 5855 5853 5851 5848 5846 5843 5841 5838 5835 5832 5829 5826 5823 5820 5817 5813 5810 5807 5804 5801 5798 5794 5791 5788
5881 5883 5884 5885 5886 5887 5888 5889 5890 5892 5892 5892 5893 5893 5893 5893 5893 5893 5893 5892 5893 5893 5892 5892 5893 5894 5894 5893 5892 5892 5891 5891 5890 5889 5888 5887 5885 5885 5884 5884 5883 5882 5881 5880 5879 5878 5877 5876 5875 5874 5873 5871 5870 5868 5866 5865 5863 5861 5859 5857 5855 5853 5851 5849 5846 5844 5841 5839 5836 5833 5830 5827 5824 5821 5818 5815 5812 5809 5806 5803 5800 5797 5794 5791 5788 5784
5878 5879 5881 5882 5883 5884 5886 5888 5889 5889 5889 5889 5889 5890 5890 5890 5890 5890 5890 5889 5889 5888 5888 5889 5889 5889 5892 5891 5889 5888 5888 5887 5887 5886 5885 5884 5882 5881 5880 5880 5879 5878 5877 5876 5875 5874 5873 5873 5872 5870 5869 5867 5865 5864 5862 5860 5858 5856 5854 5852 5851 5849 5847 5844 5842 5839 5837 5834 5831 5828 5825 5822 5820 5817 5814 5811 5807 5804 5801 5798 5796 5793 5790 5787 5784 5781
5875 5876 5878 5879 5880 5882 5883 5884 5885 5885 5885 5885 5886 5886 5887 5887 5887 5887 5886 5886 5886 5884 5884 5886 5885 5885 5888 5888 5885 5884 5884 5883 5883 5882 5881 5880 5879 5878 5877 5876 5875 5874 5873 5872 5871 5870 5870 5868 5867 5866 5865 5863 5861 5859 5858 5856 5854 5852 5850 5848 5846 5844 5842 5840 5837 5835 5832 5829 5826 5824 5821 5818 5815 5812 5809 5806 5803 5800 5797 5794 5791 5789 5786 5783 5780 5777
5873 5874 5875 5876 5877 5879 5880 5880 5881 5882 5882 5882 5882 5883 5883 5883 5883 5883 5883 5882 5882 5881 5881 5882 5880 5881 5884 5883 5881 5880 5879 5878 5878 5877 5877 5876 5875 5874 5873 5872 5871 5870 5869 5868 5867 5866 5865 5864 5863 5862 5860 5859 5857 5855 5853 5851 5849 5847 5845 5843 5842 5840 5837 5835 5832 5830 5827 5825 5822 5819 5816 5813 5810 5808 5805 5802 5799 5796 5793 5790 5787 5785 5782 5779 5777 5774
5870 5871 5872 5873 5874 5875 5876 5877 5878 5878 5879 5879 5879 5879 5879 5879 5879 5879 5879 5878 5878 5877 5877 5877 5876 5879 5881 5878 5876 5876 5875 5874 5874 5873 5872 5872 5871 5870 5869 5868 5867 5866 5865 5864 5862 5862 5861 5859 5858 5857 5856 5854 5853 5851 5849 5847 5845 5843 5841 5839 5837 5835 5832 5830 5827 5825 5823 5821 5818 5815 5812 5809 5806 5803 5800 5797 5795 5792 5789 5786 5783 5780 5778 5775 5773 5770
5867 5868 5869 5870 5871 5872 5873 5874 5874 5875 5875 5875 5875 5875 5875 5875 5875 5876 5875 5874 5873 5872 5872 5871 5871 5875 5877 5874 5872 5872 5871 5870 5869 5868 5868 5868 5867 5866 5865 5864 5863 5862 5860 5859 5858 5857 5856 5855 5854 5853 5851 5850 5848 5846 5844 5842 5841 5839 5837 5835 5833 5830 5828 5825 5823 5820 5818 5816 5814 5811 5808 5805 5802 5799 5796 5793 5790 5787 5784 5782 5779 5776 5773 5771 5768 5765
5863 5864 5865 5866 5867 5868 5869 5870 5871 5871 5871 5871 5871 5872 5872 5872 5872 5872 5871 5871 5870 5868 5867 5867 5868 5870 5870 5869 5868 5868 5866 5865 5864 5864 5863 5863 5862 5861 5860 5860 5859 5857 5856 5855 5853 5852 5851 5850 5850 5848 5847 5845 5843 5841 5840 5838 5836 5835 5832 5830 5828 5826 5823 5821 5818 5816 5814 5812 5809 5807 5804 5800 5797 5794 5791 5788 5785 5782 5780 5777 5774 5772 5769 5766 5763 5760
5858 5860 5861 5862 5863 5864 5865 5866 5867 5866 5866 5866 5868 5869 5869 5868 5868 5868 5867 5867 5866 5864 5863 5863 5864 5864 5863 5863 5863 5862 5861 5860 5859 5859 5858 5858 5857 5856 5856 5855 5853 5852 5851 5850 5849 5848 5847 5846 5845 5843 5842 5840 5838 5836 5835 5834 5832 5830 5828 5826 5824 5821 5818 5816 5814 5812 5809 5807 5805 5802 5799 5795 5792 5789 5786 5783 5781 5778 5775 5772 5769 5767 5764 5761 5758 5755
5854 5856 5857 5857 5858 5859 5860 5862 5862 5861 5861 5863 5865 5865 5865 5864 5864 5864 5864 5863 5861 5860 5859 5859 5859 5858 5857 5857 5857 5856 5855 5855 5854 5854 5853 5852 5852 5851 5850 5849 5848 5847 5846 5845 5845 5843 5842 5841 5840 5838 5837 5835 5833 5832 5831 5830 5828 5825 5823 5821 5819 5817 5814 5811 5809 5807 5805 5802 5800 5797 5793 5790 5787 5784 5781 5778 5776 5773 5770 5767 5764 5761 5759 5755 5752 5749
5850 5851 5852 5853 5854 5855 5856 5857 5856 5855 5857 5860 5861 5860 5860 5861 5861 5860 5859 5858 5857 5856 5855 5855 5854 5852 5852 5851 5851 5850 5850 5850 5849 5849 5848 5847 5846 5846 5845 5844 5843 5842 5842 5841 5840 5839 5838 5836 5835 5834 5832 5830 5828 5828 5827 5825 5823 5821 5818 5816 5814 5812 5810 5807 5804 5802 5800 5797 5794 5791 5788 5785 5782 5779 5776 5774 5771 5768 5765 5762 5759 5756 5753 5750 5747 5744
5845 5846 5847 5848 5849 5850 5851 5851 5851 5851 5854 5856 5856 5856 5857 5857 5856 5855 5855 5854 5853 5853 5852 5850 5848 5847 5847 5846 5846 5846 5845 5844 5844 5843 5842 5841 5841 5840 5839 5839 5838 5837 5837 5836 5835 5834 5833 5831 5830 5829 5828 5826 5824 5824 5823 5821 5819 5816 5813 5811 5809 5807 5805 5802 5799 5797 5794 5792 5789 5786 5783 5780 5777 5774 5771 5768 5766 5763 5760 5757 5754 5751 5749 5745 5742 5739
5840 5841 5842 5843 5844 5844 5845 5846 5847 5848 5849 5850 5852 5853 5854 5852 5851 5850 5849 5849 5850 5850 5848 5844 5843 5843 5843 5842 5842 5841 5840 5840 5839 5838 5837 5837 5836 5835 5834 5833 5833 5833 5832 5831 5830 5829 5828 5827 5826 5826 5824 5822 5820 5820 5818 5816 5813 5811 5808 5806 5804 5802 5799 5796 5794 5791 5789 5786 5783 5780 5778 5775 5772 5769 5766 5763 5760 5757 5755 5751 5749 5746 5744 5741 5737 5734
5835 5836 5837 5838 5838 5839 5840 5841 5842 5842 5843 5846 5849 5849 5848 5846 5845 5844 5843 5844 5846 5846 5842 5839 5839 5840 5839 5838 5837 5836 5836 5835 5834 5833 5833 5832 5831 5830 5830 5829 5828 5828 5827 5826 5825 5824 5824 5823 5822 5821 5819 5818 5817 5815 5813 5811 5808 5805 5803 5800 5798 5796 5794 5791 5789 5786 5784 5781 5778 5775 5772 5769 5766 5763 5760 5757 5754 5752 5749 5746 5744 5741 5739 5736 5732 5729
5829 5830 5831 5832 5832 5833 5834 5835 5836 5837 5839 5841 5843 5843 5841 5841 5839 5838 5838 5840 5842 5840 5837 5836 5837 5836 5835 5834 5833 5832 5832 5831 5830 5829 5829 5828 5827 5826 5825 5824 5824 5823 5822 5822 5821 5820 5820 5819 5817 5816 5815 5814 5812 5810 5808 5805 5803 5800 5798 5795 5793 5791 5788 5786 5784 5781 5779 5776 5773 5770 5767 5764 5761 5758 5755 5751 5749 5746 5744 5741 5738 5736 5734 5731 5728 5725
5824 5825 5826 5826 5827 5828 5829 5829 5830 5831 5833 5836 5837 5836 5836 5835 5834 5833 5833 5835 5836 5835 5834 5834 5833 5832 5831 5830 5829 5828 5828 5827 5826 5825 5824 5824 5823 5822 5821 5820 5819 5819 5818 5817 5817 5816 5815 5814 5812 5811 5810 5809 5807 5804 5802 5800 5798 5795 5793 5791 5788 5786 5783 5781 5778 5775 5773 5770 5767 5765 5762 5759 5756 5752 5749 5746 5744 5741 5739 5736 5734 5731 5729 5726 5724 5721
5818 5820 5821 5821 5822 5823 5824 5823 5824 5826 5828 5829 5830 5830 5830 5830 5830 5829 5829 5830 5831 5830 5830 5829 5829 5828 5827 5826 5825 5824 5824 5823 5822 5821 5820 5819 5818 5817 5816 5815 5815 5814 5813 5813 5812 5811 5810 5808 5807 5806 5805 5803 5801 5799 5796 5794 5792 5790 5788 5786 5783 5780 5778 5776 5773 5770 5767 5764 5761 5759 5756 5753 5750 5747 5744 5741 5738 5736 5733 5731 5729 5726 5724 5722 5719 5717
5813 5814 5815 5816 5817 5818 5818 5818 5819 5820 5822 5824 5824 5824 5824 5825 5825 5825 5825 5825 5825 5825 5824 5824 5824 5823 5823 5822 5821 5820 5820 5819 5818 5817 5816 5815 5814 5813 5812 5811 5810 5810 5809 5808 5807 5805 5804 5803 5802 5800 5799 5797 5795 5793 5790 5788 5786 5784 5782 5780 5777 5774 5772 5770 5767 5764 5761 5758 5755 5753 5750 5747 5745 5742 5738 5735 5733 5731 5728 5727 5725 5722 5720 5718 5716 5714
5808 5809 5810 5811 5812 5812 5812 5813 5814 5815 5816 5818 5819 5819 5819 5819 5819 5820 5820 5820 5820 5820 5819 5818 5818 5818 5818 5817 5816 5816 5816 5815 5814 5813 5812 5811 5810 5809 5808 5807 5806 5805 5804 5803 5801 5800 5799 5798 5797 5795 5794 5792 5789 5787 5784 5782 5780 5778 5776 5774 5771 5768 5766 5764 5761 5758 5755 5752 5750 5747 5744 5741 5738 5736 5733 5730 5728 5725 5724 5722 5720 5718 5716 5714 5712 5711
5802 5804 5804 5805 5806 5807 5807 5808 5809 5810 5810 5811 5812 5813 5814 5814 5813 5814 5815 5814 5814 5814 5813 5813 5813 5812 5812 5812 5811 5811 5811 5811 5810 5809 5808 5807 5806 5805 5803 5802 5801 5800 5799 5797 5796 5795 5794 5793 5791 5790 5788 5786 5784 5781 5779 5777 5775 5773 5771 5768 5765 5763 5761 5758 5755 5752 5750 5747 5744 5741 5738 5735 5732 5730 5728 5725 5723 5720 5719 5717 5716 5714 5712 5711 5709 5708
5797 5798 5800 5800 5801 5802 5803 5803 5804 5804 5805 5805 5806 5807 5808 5808 5808 5808 5809 5809 5809 5809 5808 5808 5808 5807 5807 5807 5806 5806 5806 5806 5805 5804 5803 5802 5801 5800 5799 5798 5796 5795 5794 5793 5792 5791 5790 5788 5786 5784 5782 5780 5778 5776 5774 5772 5769 5767 5765 5762 5759 5757 5755 5752 5750 5747 5744 5742 5739 5736 5733 5730 5727 5724 5722 5720 5718 5716 5714 5713 5711 5710 5709 5708 5706 5705
5792 5793 5795 5795 5795 5797 5798 5798 5798 5798 5799 5800 5801 5802 5802 5803 5802 5802 5802 5803 5803 5804 5803 5803 5803 5802 5802 5801 5800 5800 5800 5800 5799 5799 5798 5797 5796 5795 5794 5793 5792 5791 5789 5788 5787 5786 5785 5783 5781 5779 5777 5775 5773 5771 5769 5766 5764 5762 5759 5756 5754 5752 5749 5747 5744 5741 5739 5736 5733 5731 5728 5724 5721 5719 5717 5715 5713 5711 5709 5708 5707 5705 5704 5704 5702 5702
5787 5788 5789 5789 5790 5792 5792 5791 5792 5794 5795 5796 5797 5797 5797 5797 5797 5797 5797 5797 5798 5798 5798 5798 5797 5797 5796 5796 5795 5795 5794 5794 5794 5793 5792 5792 5790 5789 5789 5788 5787 5786 5784 5783 5782 5781 5779 5777 5775 5773 5771 5769 5768 5765 5763 5760 5758 5756 5754 5751 5749 5747 5744 5742 5739 5736 5733 5731 5728 5725 5722 5719 5716 5713 5712 5710 5708 5706 5705 5703 5702 5701 5700 5699 5699 5698
5780 5782 5783 5784 5785 5787 5786 5784 5787 5789 5790 5791 5791 5791 5791 5791 5792 5792 5792 5792 5792 5792 5792 5792 5792 5791 5791 5790 5790 5790 5789 5788 5788 5787 5787 5786 5785 5784 5784 5783 5782 5780 5779 5778 5777 5775 5774 5772 5770 5768 5766 5764 5762 5759 5757 5755 5753 5751 5749 5746 5744 5742 5739 5736 5734 5731 5728 5725 5722 5719 5717 5714 5711 5708 5706 5705 5704 5702 5700 5699 5698 5697 5696 5695 5695 5694
5774 5776 5777 5778 5780 5780 5779 5779 5782 5785 5785 5785 5785 5785 5785 5786 5786 5786 5787 5786 5786 5786 5786 5786 5785 5785 5785 5784 5784 5784 5783 5783 5783 5782 5781 5781 5780 5779 5778 5777 5776 5775 5774 5772 5771 5770 5768 5767 5765 5762 5760 5758 5756 5754 5752 5749 5748 5746 5744 5741 5739 5736 5734 5731 5729 5726 5723 5720 5717 5714 5712 5709 5706 5703 5701 5700 5699 5698 5696 5695 5694 5693 5693 5692 5691 5691
5768 5769 5770 5772 5774 5774 5772 5773 5776 5779 5779 5778 5778 5778 5779 5780 5781 5781 5781 5781 5780 5780 5780 5780 5779 5779 5779 5778 5778 5778 5778 5777 5777 5777 5776 5776 5775 5774 5773 5772 5771 5769 5768 5767 5766 5764 5763 5761 5759 5756 5754 5752 5750 5748 5746 5744 5742 5740 5738 5736 5733 5731 5729 5726 5724 5721 5718 5715 5712 5709 5707 5704 5701 5698 5697 5695 5694 5693 5692 5691 5690 5689 5689 5689 5688 5687
5761 5762 5764 5765 5766 5767 5766 5767 5770 5772 5772 5772 5772 5773 5773 5774 5774 5775 5774 5774 5774 5774 5774 5774 5773 5773 5773 5773 5772 5772 5772 5772 5771 5771 5771 5770 5769 5768 5768 5767 5765 5764 5763 5761 5760 5758 5757 5755 5753 5751 5748 5747 5745 5743 5741 5739 5737 5735 5733 5730 5728 5726 5723 5721 5719 5716 5713 5710 5707 5704 5702 5699 5696 5694 5692 5690 5689 5688 5687 5686 5686 5685 5685 5685 5685 5684